RANGE-B
1 43772U 18099Q 20345.19334688 .00000934 00000-0 89710-4 0 9991
2 43772 97.6964 54.0726 0013153 321.5411 38.4871 14.95367976110178
RANGE-A
1 43773U 18099R 20345.32626348 .00000579 00000-0 58020-4 0 9999
2 43773 97.6827 52.9790 0012508 321.6170 38.4160 14.95071947110183
MOVE-II
1 43780U 18099Y 20345.76358114 .00001114 00000-0 10529-3 0 9995
2 43780 97.6902 54.2513 0012613 331.3147 28.7378 14.95627550110261
SNUSat 2
1 43782U 18099AA 20345.19477543 .00000699 00000-0 68416-4 0 9998
2 43782 97.6886 53.6257 0011715 321.3773 38.6609 14.95386363110180
SnugLite
1 43784U 18099AC 20345.48559766 .00001127 00000-0 10680-3 0 9996
2 43784 097.6855 053.6880 0014091 328.5761 031.4617 14.95499924110241
ITASat 1
1 43786U 18099AE 20345.15550843 .00000951 00000-0 91018-4 0 9998
2 43786 97.6910 53.8576 0014218 329.0055 31.0325 14.95453035110191
EAGLET 1
1 43790U 18099AJ 20345.43734397 .00000282 00000-0 30357-4 0 9998
2 43790 97.6899 54.4666 0012771 332.8471 27.2081 14.95832582109951
ESEO
1 43792U 18099AL 20345.19580786 .00000306 00000-0 32636-4 0 9993
2 43792 97.6865 53.9568 0012464 330.0677 29.9830 14.95658378109970
CSIM
1 43793U 18099AM 20345.51404882 .00000813 00000-0 77024-4 0 9995
2 43793 097.6878 054.3941 0012095 324.7782 035.2639 14.96281373110014
Astrocast 0.1
1 43798U 18099AS 20345.20794655 .00000975 00000-0 92045-4 0 9995
2 43798 97.6897 54.3790 0011113 311.5249 48.5018 14.95982526110222
JO-97
1 43803U 18099AX 20345.14798530 .00001288 00000-0 12086-3 0 9995
2 43803 97.6870 53.6306 0014108 328.9993 31.0394 14.95657948110197
Suomi 100
1 43804U 18099AY 20345.15045895 .00001184 00000-0 11152-3 0 9994
2 43804 97.6869 53.6130 0014205 329.1623 30.8762 14.95639809110206
Al Farabi 2
1 43805U 18099AZ 20345.84463505 .00000725 00000-0 69990-4 0 9997
2 43805 97.6894 54.4324 0014594 326.7668 33.2625 14.95803696110316
PWSat 2
1 43814U 18099BJ 20345.41268657 .00187558 00000-0 62271-2 0 9994
2 43814 97.7911 71.2956 0009424 273.6466 86.3695 15.30388709110417
CHOMPTT
1 43855U 18104G 20345.44319225 .00002580 00000-0 10627-3 0 9997
2 43855 085.0390 058.7320 0019367 120.1923 240.1241 15.23399028110313
ISAT
1 43879U 18111D 20345.70788396 .00001481 00000-0 13556-3 0 9992
2 43879 97.6924 250.1939 0014023 22.0093 338.1736 14.96414818104827
UWE-4
1 43880U 18111E 20345.72618958 .00000429 00000-0 42673-4 0 9996
2 43880 97.6951 250.5797 0012915 21.5582 338.6181 14.96651326104859
Sparrow
1 43881U 18111F 20345.70342416 .00001214 00000-0 11121-3 0 9994
2 43881 97.6964 250.6552 0013172 21.0211 339.1549 14.96702704104855
Lume 1
1 43908U 18111AJ 20345.39891299 .00003164 00000-0 12696-3 0 9991
2 43908 97.2498 240.0031 0019306 238.7274 121.2074 15.25535530108849
FO-98
1 43933U 19003B 20345.49223846 .00002108 00000-0 92690-4 0 9998
2 43933 97.2078 28.2843 0017193 346.5639 13.5138 15.22822246105316
FO-99
1 43937U 19003F 20345.58640235 .00003414 00000-0 13892-3 0 9994
2 43937 097.2046 030.1358 0022598 325.2531 034.7230 15.24939648105470
Delphini 1
1 44030U 98067PW 20345.53311921 .00104238 00000-0 57353-3 0 9994
2 44030 051.6292 135.1070 0001806 323.8729 036.2149 15.78903823106181
MYSat 1
1 44045U 18092F 20345.24565244 .00007404 00000-0 20506-3 0 9994
2 44045 051.6386 268.0919 0010230 237.1144 122.8856 15.37980698102327
AstroCast 0.2
1 44083U 19018F 20345.71456382 .00001840 00000-0 83695-4 0 9996
2 44083 97.4002 44.1297 0011418 275.0211 84.9721 15.21940096 94183
AISTechSat 3
1 44103U 19018AB 20345.87437383 .00001870 00000-0 81134-4 0 9995
2 44103 97.3870 44.5676 0011787 290.4879 157.4996 15.23537149 94298
AISat 1
1 44104U 19018AC 20345.81114941 .00002127 00000-0 69390-4 0 9998
2 44104 97.4471 56.4428 0056251 307.4726 52.1407 15.31462204 94790
Raavana-1
1 44329U 98067QE 20345.49850871 .00035847 00000-0 38531-3 0 9998
2 44329 051.6362 168.9474 0004500 287.8349 072.2154 15.63386189084481
Uguisu
1 44330U 98067QF 20345.77914267 .00035431 00000-0 38313-3 0 9998
2 44330 51.6345 167.7744 0004475 287.3482 72.7023 15.63239040 84501
NepaliSat-1
1 44331U 98067QG 20345.74524661 .00034177 00000-0 36759-3 0 9999
2 44331 51.6336 167.5506 0004501 292.0997 67.9520 15.63393976 84518
Prox-1
1 44339U 19036A 20345.27954716 .00001407 00000-0 28266-3 0 9996
2 44339 24.0005 85.3421 0010874 276.7259 83.1994 14.53267858 77701
Oculus-ASR
1 44348U 19036K 20345.29763462 .00026338 00000-0 38033-3 0 9997
2 44348 028.5145 307.2451 0351178 028.2256 333.6902 15.06675804080301
Armadillo
1 44352U 19036P 20345.17367540 .00037085 00000-0 51800-3 0 9994
2 44352 28.5296 297.9994 0331311 42.0155 320.5360 15.11383917 80332
NO-104
1 44354U 19036R 20345.23414702 .00026841 00000-0 37957-3 0 9991
2 44354 28.5292 303.2460 0347229 33.1840 329.0033 15.07910419 80335
NO-103
1 44355U 19036S 20343.96983213 .00041422 00000-0 52785-3 0 9996
2 44355 28.5278 290.8872 0309989 53.2557 309.6088 15.17522163 80359
CP9
1 44360U 19036X 20343.96922496 .00063623 -48847-5 61932-3 0 9996
2 44360 28.5079 260.1863 0271614 104.4303 258.6594 15.30208909 80534
Move-IIb
1 44398U 19038N 20345.79232570 .00002739 00000-0 15844-3 0 9994
2 44398 97.5580 305.0493 0023154 239.1725 120.7227 15.12900985 79234
SONATE
1 44400U 19038Q 20345.81699809 .00001469 00000-0 88421-4 0 9994
2 44400 97.5639 305.0569 0023390 237.9623 121.9336 15.12211007 79225
BeeSat 9
1 44412U 19038AC 20345.45393184 .00002720 00000-0 15836-3 0 9994
2 44412 097.5626 304.8526 0020897 243.7145 116.1939 15.12710048078871
JAISAT-1
1 44419U 19038F 20345.48410286 .00002310 00000-0 13333-3 0 9992
2 44419 097.5628 305.2814 0019749 242.0243 117.8989 15.13194813079219
LightSail-2
1 44420U 19036AC 20345.67518046 .00008818 00000-0 18435-2 0 9992
2 44420 24.0072 72.8159 0016300 300.6777 59.2109 14.57718228 76029
Taurus 1
1 44530U 19059C 20345.74334846 .00000065 00000-0 31170-4 0 9990
2 44530 98.5613 68.4800 0013729 356.4229 3.6846 14.45802048 65812
Duchifat 3
1 44854U 19089C 20345.66516698 .00000827 00000-0 72950-4 0 9997
2 44854 36.9628 136.8646 0008480 37.7627 322.3699 14.99242781 54759
OPS-SAT
1 44878U 19092F 20345.51164711 .00003121 00000-0 16586-3 0 9998
2 44878 097.4682 165.8846 0015460 104.5458 255.7491 15.15929209054207
TO-108
1 44881U 19093C 20345.75111602 .00000130 00000-0 23365-4 0 9991
2 44881 97.9436 60.4636 0014701 179.7402 180.3827 14.81416960 52795
FloripaSat 1
1 44885U 19093G 20345.73793478 .00000554 00000-0 76264-4 0 9996
2 44885 97.9443 60.7786 0014404 189.8823 170.2112 14.82148711 52810
RS-44
1 44909U 19096E 20345.26931868 .00000004 00000-0 -32810-4 0 9991
2 44909 082.5226 238.4834 0217382 175.1778 185.1490 12.79707683044673
SwampSat-2
1 45115U 19071E 20345.77792040 .00036813 00000-0 88787-3 0 9996
2 45115 51.6390 225.8392 0008464 339.9465 20.1186 15.40827657 48245
HO-107
1 45119U 19071J 20345.10997109 .00005640 00000-0 17722-3 0 9995
2 45119 51.6416 234.0472 0011309 329.4495 30.5827 15.34470784 48085
Phoenix
1 45258U 98067RB 20345.84829782 .00012237 00000-0 19953-3 0 9991
2 45258 51.6394 190.0377 0005263 269.0686 90.9701 15.53019113 45862
AztechSat-1
1 45261U 98067RE 20345.42096219 .00026306 00000-0 37450-3 0 9994
2 45261 51.6385 189.4470 0006189 282.3552 77.6746 15.56138333 45859
QARMAN
1 45263U 98067RG 20345.81708721 .00018525 00000-0 28009-3 0 9991
2 45263 51.6390 189.0887 0005927 281.2844 78.7481 15.54731604 45931
Quetzal 1
1 45598U 98067RL 20345.80724797 .00017959 00000-0 28346-3 0 9996
2 45598 51.6403 191.2778 0001962 41.6559 318.4581 15.53579983 35176
BY70-2
1 45857U 20042B 20345.74066422 .00001798 00000-0 26494-3 0 9995
2 45857 98.0008 57.3738 0012516 102.6272 257.6322 14.76532672 23694
UPMSat 2
1 46276U 20061E 20345.74996939 .00001134 00000-0 62157-4 0 9998
2 46276 97.4546 57.1400 0000715 27.6889 332.4381 15.16179401 14949
AmicalSat
1 46287U 20061R 20345.41841688 .00001726 00000-0 10975-3 0 9991
2 46287 97.5099 56.6595 0003681 49.9066 310.2485 15.10111088 14819
SALSAT
1 46495U 20068K 20345.63439576 .00001503 00000-0 11512-3 0 9993
2 46495 097.6756 278.4609 0017405 355.0528 005.0523 15.03289620010968
BY70-3
1 46839U 20079N 20345.75083819 .00004491 00000-0 14584-3 0 9996
2 46839 97.2621 57.3104 0008067 152.1657 327.2686 15.32416075 5291
Bobcat-1
1 46921U 98067RR 20345.86650957 .00011521 00000-0 20317-3 0 9998
2 46921 51.6419 193.9158 0002916 104.8391 255.2921 15.50880761 5552
SPOC
1 46922U 98067RS 20345.80015574 .00015932 00000-0 27558-3 0 9997
2 46922 51.6420 194.2229 0002678 112.0058 248.1216 15.51110752 5504
Neutron-1
1 46923U 98067RT 20345.80400944 .00011376 00000-0 20138-3 0 9992
2 46923 51.6418 194.2479 0002875 115.4284 244.7002 15.50786518 5576
